User: anonymous   Login
Location: Norton
(51.3000°N, 0.8167°E)
Time: 11:27:44
(UTC+00:00)
Language:

Cosmos 2322 Rocket - Orbit

View from above orbital plane
View from above orbital plane
View from above satellite
View from above satellite

Ground track
Ground track

The orbit data is extracted from the following two-line orbital elements,

1 23705U 95058B   21133.47628320 -.00000201  00000-0 -79065-4 0  9992
2 23705  71.0226 276.5136 0014847 282.0093  77.9365 14.15152172318665
Epoch (UTC): 13 May 2021 11:25:50
Eccentricity: 0.0014847
inclination: 71.0226°
perigee height: 831 km
apogee height: 852 km
right ascension of ascending node: 276.5136°
argument of perigee: 282.0093°
revolutions per day: 14.15152172
mean anomaly at epoch: 77.9365°
orbit number at epoch: 31866

The dashed part of the orbit path shows where the satellite is in the earth's shadow,  

DLR